Weather History for Greenwood, SC

Change the Weather History Date:

Thursday, April 5, 2012

  Actual Average (KAND) Record (KAND)
Temperature  
Mean Temperature 70 °F -  
Max Temperature 82 °F 68 °F 87 °F (1988)
Min Temperature 59 °F 46 °F 32 °F (2004)
Cooling Degree Days 6    
Growing Degree Days 20 (Base 50)    
Moisture  
Dew Point 59 °F    
Average Humidity 71    
Maximum Humidity 93    
Minimum Humidity 45    
Precipitation  
Precipitation 0.00 in - - ()
Sea Level Pressure  
Sea Level Pressure 29.70 in    
Wind  
Wind Speed 7 mph (WSW)    
Max Wind Speed 17 mph    
Max Gust Speed 23 mph    
Visibility 10 miles    
Events Rain    
Averages and records for this station are not official NWS values.
T = Trace of Precipitation, MM = Missing Value Source: NWS Daily Summary

Daily Weather History Graph

Daily Weather History Graph

Search for Another Location

Airport:

Trip Planner

Search our weather history database for the weather conditions in past years. The results will help you decide how hot, cold, wet, or windy it might be!

Date:

Astronomy

Apr. 05, 2012 Rise Set
Actual Time 7:09 AM EDT 7:52 PM EDT
Civil Twilight 6:44 AM EDT 8:18 PM EDT
Nautical Twilight 6:14 AM EDT 8:48 PM EDT
Astronomical Twilight 5:43 AM EDT 9:19 PM EDT
Moon 6:57 PM EDT (4/5) 6:03 AM EDT (4/5)
Length of Visible Light 13h 33m
Length of Day
12h 43m
Waxing Gibbous, 98% of the Moon is Illuminated
Apr 5
Waxing Gibbous
Apr 6
Full
Apr 13
Last Quarter
Apr 21
New
Apr 29
First Quarter

Hourly Weather History & Observations

Time (EDT) Temp. Heat Index Dew Point Humidity Pressure Visibility Wind Dir Wind Speed Gust Speed Precip Events Conditions
12:56 AM 66.9 °F - 63.0 °F 87% 29.70 in 10.0 mi SW 6.9 mph - N/A   Clear
1:56 AM 68.0 °F - 62.1 °F 81% 29.70 in 10.0 mi WSW 8.1 mph - N/A   Clear
2:56 AM 66.9 °F - 61.0 °F 81% 29.69 in 10.0 mi WSW 5.8 mph - N/A   Mostly Cloudy
3:56 AM 66.0 °F - 62.1 °F 87% 29.67 in 10.0 mi WSW 5.8 mph - N/A   Partly Cloudy
4:56 AM 66.0 °F - 61.0 °F 84% 29.67 in 10.0 mi WSW 6.9 mph - N/A   Mostly Cloudy
5:56 AM 64.9 °F - 61.0 °F 87% 29.69 in 9.0 mi Variable 3.5 mph - N/A   Mostly Cloudy
6:56 AM 63.0 °F - 61.0 °F 93% 29.69 in 8.0 mi WSW 3.5 mph - N/A   Scattered Clouds
7:56 AM 63.0 °F - 61.0 °F 93% 29.71 in 6.0 mi Calm Calm - N/A   Clear
8:56 AM 68.0 °F - 62.1 °F 81% 29.72 in 10.0 mi WSW 4.6 mph - N/A   Clear
9:56 AM 70.0 °F - 62.1 °F 76% 29.72 in 10.0 mi West 6.9 mph - N/A   Clear
10:56 AM 75.0 °F - 63.0 °F 66% 29.71 in 10.0 mi Calm Calm - N/A   Clear
11:56 AM 77.0 °F - 63.0 °F 62% 29.72 in 10.0 mi SW 3.5 mph - N/A   Clear
12:56 PM 79.0 °F - 62.1 °F 56% 29.70 in 10.0 mi WSW 6.9 mph - N/A   Clear
1:56 PM 80.1 °F 81.1 °F 61.0 °F 52% 29.68 in 10.0 mi South 4.6 mph - N/A   Partly Cloudy
2:56 PM 80.1 °F 80.4 °F 57.0 °F 45% 29.65 in 10.0 mi SW 9.2 mph - N/A   Clear
3:56 PM 82.0 °F 82.1 °F 59.0 °F 45% 29.63 in 10.0 mi SW 11.5 mph 20.7 mph N/A   Mostly Cloudy
4:56 PM 79.0 °F - 57.9 °F 48% 29.62 in 10.0 mi SW 17.3 mph - N/A   Clear
5:56 PM 78.1 °F - 55.9 °F 46% 29.65 in 10.0 mi WSW 12.7 mph - N/A   Clear
6:56 PM 73.9 °F - 54.0 °F 50% 29.66 in 10.0 mi NW 8.1 mph - N/A   Clear
7:18 PM 66.2 °F - 57.2 °F 73% 29.70 in 10.0 mi NNE 13.8 mph 20.7 mph 0.00 in Rain Light Rain
7:56 PM 63.0 °F - 53.1 °F 70% 29.72 in 10.0 mi NE 13.8 mph 23.0 mph 0.00 in   Overcast
9:25 PM 60.8 °F - 53.6 °F 77% 29.75 in 10.0 mi ENE 10.4 mph 23.0 mph N/A   Mostly Cloudy
9:56 PM 60.1 °F - 53.1 °F 78% 29.75 in 10.0 mi ENE 6.9 mph 19.6 mph N/A   Overcast
10:51 PM 59.0 °F - 53.6 °F 82% 29.75 in 10.0 mi ENE 8.1 mph - N/A   Overcast
10:56 PM 59.0 °F - 54.0 °F 83% 29.73 in 10.0 mi ENE 4.6 mph - N/A   Overcast